Content
SEND FEEDBACK

Daily
Averages
Monthly
Summary
United States of America

FOWLERTON, TEXAS


Home > North America > United States > Texas
Elevation: 342 feet     Latitude: 28 29N     Longitude: 098 52W

WEATHER
 
SELECT A DAY
Number of Records: 177,189;   Date Range: 1/1/95 - 10/30/14
 
SHARE

PRINT THIS DATA

[ ← Previous Day ]
WEATHER ALMANAC - JANUARY 31, 2013
[ Next Day → ]
[ °C ]   °F
Weather ElementAverageHighLow
Temperature53.9 °F70 °F (1:53 pm)35.1 °F (3:53 am)
Dewpoint20.1 °F30.9 °F (11:53 pm)14 °F (11:53 am)
Humidity31.7 %59 % (3:53 am)12 % (1:53 pm)
Barometer30.25 in30.32 in (10:53 am)30.18 in (4:53 pm)
Wind Speed3.4 mph9.2 mph (2:53 pm)
Weather ElementAverage
Visibility10 mi
Wind DirectionE (85.7 °)

Weather ElementTotal
Precipitation---
Heating Degree Days12.5 (Base 65)
Growing Degree Days2.6 (Base 50)
Averaged from 23 records on January 31, 2013
WEATHER CONDITIONS BREAKOUT
WIND DIRECTION BREAKOUT
WEATHER BY HOUR - JANUARY 31, 2013
[ °C ]   °F
Local TimeTemperatureDewpointHumidityBarometerVisibilityWind DirectionWind SpeedGust SpeedPrecipitationEventsConditions
1:53 AM37.9 °F19.9 °F48 %30.25 in10.0 miCalmClear
2:53 AM37.0 °F21.9 °F54 %30.24 in10.0 miCalmClear
3:53 AM35.1 °F21.9 °F59 %30.26 in10.0 miCalmClear
4:53 AM36.0 °F23.0 °F59 %30.25 in10.0 miCalmClear
5:53 AM36.0 °F23.0 °F59 %30.26 in10.0 miCalmClear
6:53 AM36.0 °F19.0 °F50 %30.27 in10.0 miCalmClear
7:53 AM39.9 °F25.0 °F55 %30.29 in10.0 miCalmClear
8:53 AM48.9 °F19.0 °F31 %30.30 in10.0 miCalmClear
9:53 AM57.9 °F21.0 °F24 %30.31 in10.0 miSouth (190°)6.9 mphClear
10:53 AM62.1 °F15.1 °F16 %30.32 in10.0 miSouth (180°)8.1 mphClear
11:53 AM66.0 °F14.0 °F13 %30.30 in10.0 miVariable3.5 mphClear
12:53 PM68.0 °F15.1 °F13 %30.27 in10.0 miSSW (210°)8.1 mphClear
1:53 PM70.0 °F15.1 °F12 %30.22 in10.0 miSSW (210°)6.9 mphClear
2:53 PM69.1 °F15.1 °F13 %30.20 in10.0 miSSE (160°)9.2 mphClear
3:53 PM70.0 °F16.0 °F13 %30.19 in10.0 miSouth (190°)8.1 mphClear
4:53 PM69.1 °F17.1 °F14 %30.18 in10.0 miSSW (200°)5.8 mphClear
5:53 PM66.9 °F17.1 °F15 %30.19 in10.0 miSouth (180°)5.8 mphClear
6:53 PM62.1 °F18.0 °F18 %30.21 in10.0 miSouth (190°)3.5 mphClear
7:53 PM57.9 °F23.0 °F26 %30.24 in10.0 miCalmClear
8:53 PM55.4 °F24.8 °F31 %30.26 in10.0 miCalmClear
9:53 PM53.1 °F24.1 °F32 %30.26 in10.0 miCalmClear
10:53 PM53.1 °F24.1 °F32 %30.27 in10.0 miESE (110°)8.1 mphClear
11:53 PM53.1 °F30.9 °F43 %30.27 in10.0 miSSE (150°)4.6 mphClear
Hourly data recorded from KCOT, located miles away from Fowlerton, Texas







STORIES FROM OUR PARTNERS